Location: Altleiningen
(49.5078°N, 8.0741°E)
Time: 11:51:53
(UTC+00:00)

FALCON 9 DEB - Pass Details

Date: 03 March 2021
Orbit: 371 x 387 km, 53.0° (Epoch: 13 April)

Event Time Altitude Azimuth Distance (km) Brightness Sun altitude
Rises 17:42:20 0° 270° (W) 2,289 9.6 -5.4°
Reaches altitude 10° 17:44:27 10° 277° (W) 1,434 7.5 -5.8°
Maximum altitude 17:47:34 45° 352° (N) 548 3.7 -6.3°
Drops below altitude 10° 17:50:40 10° 67° (ENE) 1,436 5.2 -6.8°
Enters shadow 17:51:02 - 69° (ENE) 1,579 5.4 -6.8°
